Tracking 32140 objects as of 13-Nov-2025
HD Live streaming from Space Station
objects crossing your sky now

DELTA 1 R/B

Track DELTA 1 R/B now!
10-day predictions


NORAD ID: 9063
Int'l Code: 1976-077B
Perigee: 1,421.3 km
Apogee: 1,517.8 km
Inclination: 102.0 °
Period: 115.2 minutes
Semi major axis: 7840 km
RCS: 5.8014 m2 (large)
Launch date: July 29, 1976
Source: United States (US)
Launch site: AIR FORCE WESTERN TEST RANGE (AFWTR)

Note: This is a ROCKET BODY
Your satellite tracking list
Your tracking list is empty




NASA's NSSDC Master Catalog

Two Line Element Set (TLE):
1 09063U 76077B   25317.44308362 -.00000017  00000-0  18655-3 0  9990
2 09063 102.0276 304.5449 0061529  76.8153  43.6613 12.50503200292138
Source of the keplerian elements: AFSPC